Time,TemperatureF,DewpointF,PressureIn,WindDirection,WindDirectionDegrees,WindSpeedMPH,WindSpeedGustMPH,Humidity,HourlyPrecipIn,Conditions,Clouds,dailyrainin,SoftwareType,DateUTC
2013-07-22 00:00:00,67.4,66.8,29.98,SE,143,0.0,0.0,98,0.00,,,0.00,Wunderground v.1.15,2013-07-22 04:00:00,
2013-07-22 00:05:00,67.4,66.8,29.98,SE,143,0.0,0.0,98,0.00,,,0.00,Wunderground v.1.15,2013-07-22 04:05:00,
2013-07-22 00:10:00,67.4,66.8,29.98,SE,143,0.0,0.0,98,0.00,,,0.00,Wunderground v.1.15,2013-07-22 04:10:00,
2013-07-22 00:20:00,67.3,66.7,29.98,SE,143,0.0,0.0,98,0.00,,,0.00,Wunderground v.1.15,2013-07-22 04:20:00,
2013-07-22 00:25:00,67.3,66.7,29.98,SE,143,0.0,0.0,98,0.00,,,0.00,Wunderground v.1.15,2013-07-22 04:25:00,
2013-07-22 00:30:00,67.3,66.7,29.98,SE,143,0.0,0.0,98,0.00,,,0.00,Wunderground v.1.15,2013-07-22 04:30:00,
2013-07-22 00:35:00,67.2,66.6,29.98,SE,143,0.0,0.0,98,0.00,,,0.00,Wunderground v.1.15,2013-07-22 04:35:00,
2013-07-22 00:40:00,67.1,66.5,29.98,SE,143,0.0,0.0,98,0.00,,,0.00,Wunderground v.1.15,2013-07-22 04:40:00,
2013-07-22 00:45:00,67.2,66.6,29.98,SE,143,0.0,0.0,98,0.00,,,0.00,Wunderground v.1.15,2013-07-22 04:45:00,
2013-07-22 00:55:00,67.2,66.6,29.98,SE,142,0.0,0.0,98,0.00,,,0.00,Wunderground v.1.15,2013-07-22 04:55:00,
2013-07-22 01:00:00,67.2,66.6,29.97,SE,142,0.0,0.0,98,0.00,,,0.00,Wunderground v.1.15,2013-07-22 05:00:00,
2013-07-22 03:05:00,66.7,66.4,29.94,SE,143,0.0,0.0,99,0.00,,,0.00,Wunderground v.1.15,2013-07-22 07:05:00,
2013-07-22 03:10:00,66.7,66.4,29.93,SE,143,0.0,0.0,99,0.00,,,0.00,Wunderground v.1.15,2013-07-22 07:10:00,
2013-07-22 03:15:00,66.7,66.4,29.94,SE,143,0.0,0.0,99,0.00,,,0.00,Wunderground v.1.15,2013-07-22 07:15:00,
2013-07-22 03:25:00,66.6,66.3,29.94,SE,143,0.0,0.0,99,0.00,,,0.00,Wunderground v.1.15,2013-07-22 07:25:00,
2013-07-22 03:30:00,66.6,66.3,29.93,SE,144,0.0,0.0,99,0.00,,,0.00,Wunderground v.1.15,2013-07-22 07:30:00,
2013-07-22 03:35:00,66.5,66.2,29.93,SE,143,0.0,0.0,99,0.00,,,0.00,Wunderground v.1.15,2013-07-22 07:35:00,
2013-07-22 03:40:00,66.4,66.1,29.93,SE,143,0.0,0.0,99,0.00,,,0.00,Wunderground v.1.15,2013-07-22 07:40:00,
2013-07-22 03:45:00,66.3,66.0,29.93,SE,143,0.0,0.0,99,0.00,,,0.00,Wunderground v.1.15,2013-07-22 07:45:00,
2013-07-22 03:50:00,66.2,65.9,29.92,SE,143,0.0,0.0,99,0.00,,,0.00,Wunderground v.1.15,2013-07-22 07:50:00,
2013-07-22 03:55:00,66.0,65.7,29.92,SE,143,0.0,0.0,99,0.00,,,0.00,Wunderground v.1.15,2013-07-22 07:55:00,
2013-07-22 04:00:00,65.8,65.5,29.92,SE,143,0.0,0.0,99,0.00,,,0.00,Wunderground v.1.15,2013-07-22 08:00:00,
2013-07-22 04:10:00,65.5,65.2,29.92,SE,143,0.0,0.0,99,0.00,,,0.00,Wunderground v.1.15,2013-07-22 08:10:00,
2013-07-22 04:15:00,65.3,65.0,29.92,SE,143,0.0,0.0,99,0.00,,,0.00,Wunderground v.1.15,2013-07-22 08:15:00,
2013-07-22 04:20:00,65.2,64.9,29.93,SE,143,0.0,0.0,99,0.00,,,0.00,Wunderground v.1.15,2013-07-22 08:20:00,
2013-07-22 04:25:00,65.2,64.9,29.93,SE,143,0.0,0.0,99,0.00,,,0.00,Wunderground v.1.15,2013-07-22 08:25:00,
2013-07-22 04:30:00,65.1,64.8,29.93,SE,143,0.0,0.0,99,0.00,,,0.00,Wunderground v.1.15,2013-07-22 08:30:00,
2013-07-22 04:40:00,65.1,64.8,29.93,SE,143,0.0,0.0,99,0.00,,,0.00,Wunderground v.1.15,2013-07-22 08:40:00,
2013-07-22 04:45:00,65.1,64.8,29.93,SE,143,0.0,0.0,99,0.00,,,0.00,Wunderground v.1.15,2013-07-22 08:45:00,
2013-07-22 04:50:00,65.1,64.8,29.92,SE,143,0.0,0.0,99,0.00,,,0.00,Wunderground v.1.15,2013-07-22 08:50:00,
2013-07-22 04:55:00,65.2,64.9,29.92,SE,143,0.0,0.0,99,0.00,,,0.00,Wunderground v.1.15,2013-07-22 08:55:00,
2013-07-22 05:00:00,65.3,65.0,29.92,SE,144,0.0,0.0,99,0.00,,,0.00,Wunderground v.1.15,2013-07-22 09:00:00,
2013-07-22 05:10:00,65.3,65.0,29.92,SE,143,0.0,0.0,99,0.00,,,0.00,Wunderground v.1.15,2013-07-22 09:10:00,
2013-07-22 05:15:00,65.4,65.1,29.92,SE,143,0.0,0.0,99,0.00,,,0.00,Wunderground v.1.15,2013-07-22 09:15:00,
2013-07-22 05:25:00,65.5,65.2,29.92,SE,144,0.0,0.0,99,0.00,,,0.00,Wunderground v.1.15,2013-07-22 09:25:00,
2013-07-22 05:30:00,65.5,65.2,29.92,SE,143,0.0,0.0,99,0.00,,,0.00,Wunderground v.1.15,2013-07-22 09:30:00,
2013-07-22 05:35:00,65.4,65.1,29.92,SE,143,0.0,0.0,99,0.00,,,0.00,Wunderground v.1.15,2013-07-22 09:35:00,
2013-07-22 05:40:00,65.4,65.1,29.92,SE,143,0.0,0.0,99,0.00,,,0.00,Wunderground v.1.15,2013-07-22 09:40:00,
2013-07-22 05:50:00,65.5,65.2,29.93,SE,144,0.0,0.0,99,0.00,,,0.00,Wunderground v.1.15,2013-07-22 09:50:00,
2013-07-22 05:55:00,65.6,65.3,29.93,SE,143,0.0,0.0,99,0.00,,,0.00,Wunderground v.1.15,2013-07-22 09:55:00,
2013-07-22 06:00:00,65.6,65.3,29.93,SE,144,0.0,0.0,99,0.00,,,0.00,Wunderground v.1.15,2013-07-22 10:00:00,
2013-07-22 06:10:00,65.6,65.3,29.93,SE,143,0.0,0.0,99,0.00,,,0.00,Wunderground v.1.15,2013-07-22 10:10:00,
2013-07-22 06:15:00,65.6,65.3,29.93,SE,143,0.0,0.0,99,0.00,,,0.00,Wunderground v.1.15,2013-07-22 10:15:00,
2013-07-22 06:25:00,65.6,65.3,29.93,SE,143,0.0,0.0,99,0.00,,,0.00,Wunderground v.1.15,2013-07-22 10:25:00,
2013-07-22 06:30:00,65.7,65.4,29.93,SE,144,0.0,0.0,99,0.00,,,0.00,Wunderground v.1.15,2013-07-22 10:30:00,
2013-07-22 06:35:00,65.8,65.5,29.93,SE,143,0.0,0.0,99,0.00,,,0.00,Wunderground v.1.15,2013-07-22 10:35:00,
2013-07-22 06:40:00,65.8,65.5,29.93,SE,144,0.0,0.0,99,0.00,,,0.00,Wunderground v.1.15,2013-07-22 10:40:00,
2013-07-22 06:45:00,65.9,65.6,29.93,SE,144,0.0,0.0,99,0.00,,,0.00,Wunderground v.1.15,2013-07-22 10:45:00,
2013-07-22 06:55:00,66.2,65.9,29.92,SE,143,0.0,0.0,99,0.00,,,0.00,Wunderground v.1.15,2013-07-22 10:55:00,
2013-07-22 07:00:00,66.3,66.0,29.92,SE,144,0.0,0.0,99,0.00,,,0.00,Wunderground v.1.15,2013-07-22 11:00:00,
2013-07-22 07:56:00,67.4,67.1,29.91,N/A,-737280,0.0,-999.0,99,0.00,,,0.00,Wunderground v.1.15,2013-07-22 11:56:00,
2013-07-22 08:01:00,67.5,67.2,29.92,N/A,-737280,0.0,-999.0,99,0.00,,,0.00,Wunderground v.1.15,2013-07-22 12:01:00,
2013-07-22 08:06:00,67.6,67.3,29.92,N/A,-737280,0.0,-999.0,99,0.00,,,0.00,Wunderground v.1.15,2013-07-22 12:06:00,
2013-07-22 08:11:00,67.8,67.5,29.92,N/A,-737280,0.0,-999.0,99,0.00,,,0.00,Wunderground v.1.15,2013-07-22 12:11:00,
2013-07-22 08:16:00,67.9,67.6,29.92,N/A,-737280,0.0,-999.0,99,0.00,,,0.00,Wunderground v.1.15,2013-07-22 12:16:00,
2013-07-22 08:21:00,68.0,67.7,29.92,N/A,-737280,0.0,-999.0,99,0.00,,,0.00,Wunderground v.1.15,2013-07-22 12:21:00,
2013-07-22 08:26:00,68.0,67.7,29.92,N/A,-737280,0.0,-999.0,99,0.00,,,0.00,Wunderground v.1.15,2013-07-22 12:26:00,
2013-07-22 08:31:00,68.1,67.5,29.92,N/A,-737280,0.0,-999.0,98,0.00,,,0.00,Wunderground v.1.15,2013-07-22 12:31:00,
2013-07-22 08:36:00,68.1,67.5,29.92,N/A,-737280,0.0,-999.0,98,0.00,,,0.00,Wunderground v.1.15,2013-07-22 12:36:00,
2013-07-22 08:41:00,68.2,67.6,29.92,N/A,-737280,0.0,-999.0,98,0.00,,,0.00,Wunderground v.1.15,2013-07-22 12:41:00,
2013-07-22 08:46:00,68.4,67.8,29.92,N/A,-737280,0.0,-999.0,98,0.00,,,0.00,Wunderground v.1.15,2013-07-22 12:46:00,
2013-07-22 08:51:00,68.6,68.0,29.92,N/A,-737280,0.0,-999.0,98,0.00,,,0.00,Wunderground v.1.15,2013-07-22 12:51:00,
2013-07-22 08:56:00,68.9,68.3,29.92,N/A,-737280,0.0,-999.0,98,0.00,,,0.00,Wunderground v.1.15,2013-07-22 12:56:00,
2013-07-22 09:01:00,69.0,68.4,29.92,East,90,0.0,-999.0,98,0.00,,,0.00,Wunderground v.1.15,2013-07-22 13:01:00,
2013-07-22 09:06:00,69.2,68.3,29.92,N/A,-737280,0.0,-999.0,97,0.00,,,0.00,Wunderground v.1.15,2013-07-22 13:06:00,
2013-07-22 09:11:00,69.4,68.5,29.92,NNE,23,1.0,-999.0,97,0.00,,,0.00,Wunderground v.1.15,2013-07-22 13:11:00,
2013-07-22 09:16:00,69.4,68.2,29.92,NNE,23,1.0,-999.0,96,0.00,,,0.00,Wunderground v.1.15,2013-07-22 13:16:00,
2013-07-22 09:21:00,69.6,68.4,29.92,NE,45,1.0,-999.0,96,0.00,,,0.00,Wunderground v.1.15,2013-07-22 13:21:00,
2013-07-22 09:26:00,69.7,68.5,29.91,NE,45,1.0,-999.0,96,0.00,,,0.00,Wunderground v.1.15,2013-07-22 13:26:00,
2013-07-22 09:31:00,69.9,68.7,29.92,NNE,23,1.0,-999.0,96,0.00,,,0.00,Wunderground v.1.15,2013-07-22 13:31:00,
2013-07-22 09:36:00,70.2,69.0,29.92,SE,135,0.0,-999.0,96,0.00,,,0.00,Wunderground v.1.15,2013-07-22 13:36:00,
2013-07-22 09:41:00,70.6,69.1,29.92,East,90,0.0,-999.0,95,0.00,,,0.00,Wunderground v.1.15,2013-07-22 13:41:00,
2013-07-22 09:46:00,70.8,69.0,29.92,East,90,1.0,-999.0,94,0.00,,,0.00,Wunderground v.1.15,2013-07-22 13:46:00,
2013-07-22 09:51:00,71.0,69.5,29.92,ENE,68,0.0,-999.0,95,0.00,,,0.00,Wunderground v.1.15,2013-07-22 13:51:00,
2013-07-22 09:56:00,71.2,69.4,29.91,ENE,68,0.0,-999.0,94,0.00,,,0.00,Wunderground v.1.15,2013-07-22 13:56:00,
2013-07-22 10:01:00,71.5,69.4,29.92,SSW,203,1.0,-999.0,93,0.00,,,0.00,Wunderground v.1.15,2013-07-22 14:01:00,
2013-07-22 10:06:00,71.6,69.5,29.92,SSW,203,0.0,-999.0,93,0.00,,,0.00,Wunderground v.1.15,2013-07-22 14:06:00,
2013-07-22 10:11:00,71.8,69.7,29.92,SE,135,0.0,-999.0,93,0.00,,,0.00,Wunderground v.1.15,2013-07-22 14:11:00,
2013-07-22 10:16:00,71.8,69.7,29.92,N/A,-737280,0.0,-999.0,93,0.00,,,0.00,Wunderground v.1.15,2013-07-22 14:16:00,
2013-07-22 10:21:00,71.9,69.8,29.92,N/A,-737280,0.0,-999.0,93,0.00,,,0.00,Wunderground v.1.15,2013-07-22 14:21:00,
2013-07-22 10:26:00,72.0,69.9,29.92,N/A,-737280,0.0,-999.0,93,0.00,,,0.00,Wunderground v.1.15,2013-07-22 14:26:00,
2013-07-22 10:31:00,71.9,69.4,29.92,N/A,-737280,0.0,-999.0,92,0.00,,,0.00,Wunderground v.1.15,2013-07-22 14:31:00,
2013-07-22 10:36:00,72.0,69.9,29.92,N/A,-737280,0.0,-999.0,93,0.00,,,0.00,Wunderground v.1.15,2013-07-22 14:36:00,
2013-07-22 10:41:00,72.1,70.0,29.92,WNW,293,0.0,-999.0,93,0.00,,,0.00,Wunderground v.1.15,2013-07-22 14:41:00,
2013-07-22 10:54:00,72.2,70.1,29.92,WNW,293,0.0,-999.0,93,0.00,,,0.00,Wunderground v.1.15,2013-07-22 14:54:00,
2013-07-22 11:00:00,72.5,70.4,29.91,NE,41,0.0,0.0,93,0.00,,,0.00,Wunderground v.1.15,2013-07-22 15:00:00,
2013-07-22 11:10:00,73.1,71.0,29.91,ESE,113,0.0,0.0,93,0.00,,,0.00,Wunderground v.1.15,2013-07-22 15:10:00,
2013-07-22 11:15:00,73.4,71.6,29.91,ESE,113,0.0,0.0,94,0.00,,,0.01,Wunderground v.1.15,2013-07-22 15:15:00,
2013-07-22 11:20:00,73.6,71.4,29.91,ESE,113,0.0,2.0,93,0.00,,,0.01,Wunderground v.1.15,2013-07-22 15:20:00,
2013-07-22 11:25:00,73.7,71.5,29.91,NNE,32,0.0,2.0,93,0.00,,,0.01,Wunderground v.1.15,2013-07-22 15:25:00,
2013-07-22 11:30:00,73.5,71.4,29.91,ESE,109,0.0,0.0,93,0.00,,,0.01,Wunderground v.1.15,2013-07-22 15:30:00,
2013-07-22 11:40:00,73.5,71.4,29.92,ESE,103,0.0,0.0,93,0.00,,,0.01,Wunderground v.1.15,2013-07-22 15:40:00,
2013-07-22 11:45:00,73.7,71.5,29.91,ESE,103,0.0,0.0,93,0.00,,,0.02,Wunderground v.1.15,2013-07-22 15:45:00,
2013-07-22 11:50:00,73.9,72.1,29.91,ESE,103,0.0,0.0,94,0.00,,,0.02,Wunderground v.1.15,2013-07-22 15:50:00,
2013-07-22 11:55:00,73.9,71.7,29.91,ESE,103,0.0,0.0,93,0.00,,,0.02,Wunderground v.1.15,2013-07-22 15:55:00,
2013-07-22 12:00:00,73.9,71.7,29.91,ESE,103,0.0,0.0,93,0.00,,,0.02,Wunderground v.1.15,2013-07-22 16:00:00,
2013-07-22 12:10:00,73.7,71.9,29.90,NE,43,0.0,1.0,94,0.00,,,0.03,Wunderground v.1.15,2013-07-22 16:10:00,
2013-07-22 12:15:00,73.5,72.0,29.90,NNE,25,1.0,1.0,95,0.00,,,0.03,Wunderground v.1.15,2013-07-22 16:15:00,
2013-07-22 12:20:00,73.5,72.0,29.90,NNE,25,1.0,1.0,95,0.00,,,0.03,Wunderground v.1.15,2013-07-22 16:20:00,
2013-07-22 12:25:00,73.6,72.1,29.90,NNE,27,0.0,1.0,95,0.04,,,0.04,Wunderground v.1.15,2013-07-22 16:25:00,
2013-07-22 12:30:00,73.7,72.5,29.89,NNE,27,0.0,1.0,96,0.04,,,0.04,Wunderground v.1.15,2013-07-22 16:30:00,
2013-07-22 12:35:00,73.9,72.7,29.90,NNE,27,1.0,1.0,96,0.04,,,0.04,Wunderground v.1.15,2013-07-22 16:35:00,
2013-07-22 12:40:00,74.1,72.9,29.90,NNE,27,0.0,2.0,96,0.04,,,0.04,Wunderground v.1.15,2013-07-22 16:40:00,
2013-07-22 12:45:00,74.0,72.5,29.89,NNE,19,1.0,2.0,95,0.00,,,0.04,Wunderground v.1.15,2013-07-22 16:45:00,
2013-07-22 12:55:00,73.6,72.4,29.89,NE,35,2.0,2.0,96,0.00,,,0.05,Wunderground v.1.15,2013-07-22 16:55:00,
2013-07-22 13:00:00,73.5,72.3,29.88,NE,36,1.0,1.0,96,0.00,,,0.05,Wunderground v.1.15,2013-07-22 17:00:00,
2013-07-22 13:10:00,73.2,72.0,29.88,North,8,2.0,2.0,96,0.06,,,0.06,Wunderground v.1.15,2013-07-22 17:10:00,
2013-07-22 13:15:00,73.2,72.3,29.88,NNW,329,1.0,2.0,97,0.06,,,0.06,Wunderground v.1.15,2013-07-22 17:15:00,
2013-07-22 13:20:00,73.2,72.3,29.88,NNW,329,0.0,0.0,97,0.04,,,0.06,Wunderground v.1.15,2013-07-22 17:20:00,
2013-07-22 13:30:00,73.2,72.3,29.89,SSW,198,0.0,0.0,97,0.00,,,0.07,Wunderground v.1.15,2013-07-22 17:30:00,
2013-07-22 13:40:00,73.1,72.2,29.88,South,190,0.0,0.0,97,0.14,,,0.08,Wunderground v.1.15,2013-07-22 17:40:00,
2013-07-22 13:45:00,73.1,72.2,29.88,SSW,196,0.0,0.0,97,0.23,,,0.10,Wunderground v.1.15,2013-07-22 17:45:00,
2013-07-22 13:50:00,73.1,72.5,29.88,SSW,196,0.0,0.0,98,0.23,,,0.12,Wunderground v.1.15,2013-07-22 17:50:00,
2013-07-22 13:55:00,73.1,72.5,29.87,SSW,196,0.0,0.0,98,0.19,,,0.14,Wunderground v.1.15,2013-07-22 17:55:00,
2013-07-22 14:00:00,73.0,72.4,29.87,NNE,18,1.0,3.0,98,0.22,,,0.16,Wunderground v.1.15,2013-07-22 18:00:00,
2013-07-22 14:10:00,73.0,72.4,29.86,NNE,18,2.0,2.0,98,0.34,,,0.20,Wunderground v.1.15,2013-07-22 18:10:00,
2013-07-22 14:15:00,73.0,72.4,29.86,North,10,2.0,2.0,98,0.24,,,0.22,Wunderground v.1.15,2013-07-22 18:15:00,
2013-07-22 14:25:00,73.1,72.5,29.86,NNE,13,2.0,3.0,98,0.21,,,0.26,Wunderground v.1.15,2013-07-22 18:25:00,
2013-07-22 14:30:00,73.2,72.6,29.85,NNE,12,2.0,2.0,98,0.36,,,0.29,Wunderground v.1.15,2013-07-22 18:30:00,
2013-07-22 14:40:00,73.3,72.7,29.86,SW,219,1.0,3.0,98,1.72,,,0.40,Wunderground v.1.15,2013-07-22 18:40:00,
2013-07-22 14:45:00,72.6,71.4,29.86,SSW,194,2.0,3.0,96,2.84,,,0.58,Wunderground v.1.15,2013-07-22 18:45:00,
2013-07-22 14:50:00,71.4,69.9,29.87,SSE,163,4.0,4.0,95,3.67,,,0.82,Wunderground v.1.15,2013-07-22 18:50:00,
2013-07-22 15:00:00,70.1,68.9,29.86,ESE,110,1.0,1.0,96,0.52,,,1.04,Wunderground v.1.15,2013-07-22 19:00:00,
2013-07-22 15:10:00,69.8,68.6,29.85,East,90,1.0,1.0,96,0.09,,,1.05,Wunderground v.1.15,2013-07-22 19:10:00,
2013-07-22 15:15:00,69.8,68.6,29.85,South,180,1.0,6.0,96,0.07,,,1.05,Wunderground v.1.15,2013-07-22 19:15:00,
2013-07-22 15:20:00,69.7,68.2,29.85,SW,222,2.0,2.0,95,0.21,,,1.07,Wunderground v.1.15,2013-07-22 19:20:00,
2013-07-22 15:25:00,69.7,68.5,29.84,WNW,283,2.0,2.0,96,0.40,,,1.09,Wunderground v.1.15,2013-07-22 19:25:00,
2013-07-22 15:30:00,69.8,68.6,29.84,NNW,330,0.0,0.0,96,0.10,,,1.10,Wunderground v.1.15,2013-07-22 19:30:00,
2013-07-22 15:40:00,70.9,70.0,29.84,NNE,22,1.0,3.0,97,0.06,,,1.10,Wunderground v.1.15,2013-07-22 19:40:00,
2013-07-22 15:50:00,71.4,70.5,29.83,NNW,345,2.0,2.0,97,0.00,,,1.10,Wunderground v.1.15,2013-07-22 19:50:00,
2013-07-22 15:55:00,71.8,70.9,29.83,North,351,2.0,2.0,97,0.00,,,1.10,Wunderground v.1.15,2013-07-22 19:55:00,
2013-07-22 16:00:00,71.7,70.5,29.83,NNE,13,2.0,2.0,96,0.00,,,1.10,Wunderground v.1.15,2013-07-22 20:00:00,
2013-07-22 16:10:00,71.8,70.6,29.83,NNE,13,0.0,0.0,96,0.00,,,1.10,Wunderground v.1.15,2013-07-22 20:10:00,
2013-07-22 16:15:00,71.8,70.6,29.83,NE,40,0.0,0.0,96,0.00,,,1.10,Wunderground v.1.15,2013-07-22 20:15:00,
2013-07-22 16:20:00,71.8,70.6,29.83,NE,40,1.0,1.0,96,0.00,,,1.10,Wunderground v.1.15,2013-07-22 20:20:00,
2013-07-22 16:25:00,71.8,70.6,29.82,ENE,58,0.0,1.0,96,0.00,,,1.10,Wunderground v.1.15,2013-07-22 20:25:00,
2013-07-22 16:30:00,71.6,70.4,29.82,NNE,32,1.0,1.0,96,0.00,,,1.10,Wunderground v.1.15,2013-07-22 20:30:00,
2013-07-22 16:35:00,71.5,70.3,29.82,East,94,1.0,2.0,96,0.00,,,1.10,Wunderground v.1.15,2013-07-22 20:35:00,
2013-07-22 16:40:00,71.5,70.3,29.82,NNE,13,1.0,4.0,96,0.00,,,1.10,Wunderground v.1.15,2013-07-22 20:40:00,
2013-07-22 16:45:00,71.3,70.1,29.82,NNE,12,2.0,4.0,96,0.00,,,1.10,Wunderground v.1.15,2013-07-22 20:45:00,
2013-07-22 16:55:00,71.1,69.9,29.82,NNE,29,2.0,3.0,96,0.00,,,1.10,Wunderground v.1.15,2013-07-22 20:55:00,
2013-07-22 17:00:00,71.2,70.3,29.82,NE,43,2.0,4.0,97,0.00,,,1.10,Wunderground v.1.15,2013-07-22 21:00:00,
2013-07-22 17:10:00,71.2,70.3,29.82,North,2,4.0,4.0,97,0.00,,,1.10,Wunderground v.1.15,2013-07-22 21:10:00,
2013-07-22 17:15:00,71.2,70.3,29.82,NNE,19,3.0,4.0,97,0.00,,,1.10,Wunderground v.1.15,2013-07-22 21:15:00,
2013-07-22 17:20:00,71.1,70.2,29.82,NNE,16,3.0,3.0,97,0.00,,,1.10,Wunderground v.1.15,2013-07-22 21:20:00,
2013-07-22 17:30:00,71.2,70.3,29.82,NNE,16,1.0,1.0,97,0.00,,,1.10,Wunderground v.1.15,2013-07-22 21:30:00,
2013-07-22 17:35:00,71.3,70.4,29.82,NNE,16,0.0,1.0,97,0.00,,,1.10,Wunderground v.1.15,2013-07-22 21:35:00,
2013-07-22 17:40:00,71.3,70.4,29.82,NNE,16,1.0,2.0,97,0.00,,,1.10,Wunderground v.1.15,2013-07-22 21:40:00,
2013-07-22 17:45:00,71.4,70.5,29.81,NNE,18,1.0,2.0,97,0.00,,,1.10,Wunderground v.1.15,2013-07-22 21:45:00,
2013-07-22 17:50:00,71.4,70.5,29.81,NNE,18,2.0,2.0,97,0.00,,,1.10,Wunderground v.1.15,2013-07-22 21:50:00,
2013-07-22 17:55:00,71.4,70.5,29.81,NNE,18,1.0,2.0,97,0.00,,,1.10,Wunderground v.1.15,2013-07-22 21:55:00,
2013-07-22 18:05:00,71.3,70.4,29.81,NNE,16,2.0,3.0,97,0.00,,,1.10,Wunderground v.1.15,2013-07-22 22:05:00,
2013-07-22 18:10:00,71.2,70.3,29.80,NNE,18,3.0,3.0,97,0.00,,,1.10,Wunderground v.1.15,2013-07-22 22:10:00,
2013-07-22 18:15:00,71.2,70.3,29.80,NNE,18,2.0,3.0,97,0.00,,,1.10,Wunderground v.1.15,2013-07-22 22:15:00,
2013-07-22 18:20:00,71.2,70.3,29.80,NNE,18,2.0,2.0,97,0.00,,,1.10,Wunderground v.1.15,2013-07-22 22:20:00,
2013-07-22 18:25:00,71.1,70.2,29.80,NNE,18,1.0,2.0,97,0.00,,,1.10,Wunderground v.1.15,2013-07-22 22:25:00,
2013-07-22 18:30:00,71.1,70.2,29.80,NNE,18,1.0,2.0,97,0.00,,,1.10,Wunderground v.1.15,2013-07-22 22:30:00,
2013-07-22 18:40:00,71.2,70.6,29.79,NNE,16,1.0,2.0,98,0.00,,,1.10,Wunderground v.1.15,2013-07-22 22:40:00,
2013-07-22 18:50:00,71.4,70.8,29.79,NNE,22,2.0,2.0,98,0.00,,,1.10,Wunderground v.1.15,2013-07-22 22:50:00,
2013-07-22 18:55:00,71.4,70.8,29.79,NNE,15,1.0,2.0,98,0.00,,,1.10,Wunderground v.1.15,2013-07-22 22:55:00,
2013-07-22 19:00:00,71.3,70.7,29.79,NNE,18,2.0,3.0,98,0.00,,,1.10,Wunderground v.1.15,2013-07-22 23:00:00,
2013-07-22 19:10:00,71.2,70.6,29.79,NNE,12,2.0,2.0,98,0.00,,,1.10,Wunderground v.1.15,2013-07-22 23:10:00,
2013-07-22 19:15:00,71.2,70.6,29.79,North,351,2.0,2.0,98,0.00,,,1.10,Wunderground v.1.15,2013-07-22 23:15:00,
2013-07-22 19:25:00,71.2,70.6,29.80,South,177,2.0,2.0,98,0.00,,,1.10,Wunderground v.1.15,2013-07-22 23:25:00,
2013-07-22 19:30:00,71.4,70.8,29.79,SW,226,1.0,1.0,98,0.00,,,1.10,Wunderground v.1.15,2013-07-22 23:30:00,
2013-07-22 19:35:00,71.6,71.0,29.80,SW,224,0.0,1.0,98,0.00,,,1.10,Wunderground v.1.15,2013-07-22 23:35:00,
2013-07-22 19:40:00,71.5,70.9,29.79,North,350,0.0,0.0,98,0.00,,,1.10,Wunderground v.1.15,2013-07-22 23:40:00,
2013-07-22 19:45:00,71.6,70.7,29.79,WSW,253,0.0,0.0,97,0.00,,,1.10,Wunderground v.1.15,2013-07-22 23:45:00,
2013-07-22 19:50:00,71.7,71.1,29.79,WSW,253,0.0,0.0,98,0.00,,,1.10,Wunderground v.1.15,2013-07-22 23:50:00,
2013-07-22 20:00:00,71.9,71.0,29.80,WSW,253,0.0,0.0,97,0.00,,,1.10,Wunderground v.1.15,2013-07-23 00:00:00,
2013-07-22 20:10:00,71.4,70.2,29.80,NNE,33,2.0,5.0,96,0.00,,,1.10,Wunderground v.1.15,2013-07-23 00:10:00,
2013-07-22 20:15:00,70.8,69.6,29.80,NNE,25,4.0,5.0,96,0.00,,,1.10,Wunderground v.1.15,2013-07-23 00:15:00,
2013-07-22 20:20:00,70.3,69.1,29.79,NNE,25,4.0,4.0,96,0.00,,,1.10,Wunderground v.1.15,2013-07-23 00:20:00,
2013-07-22 20:25:00,69.9,68.7,29.79,NW,314,3.0,4.0,96,0.00,,,1.10,Wunderground v.1.15,2013-07-23 00:25:00,
2013-07-22 20:30:00,69.6,68.4,29.80,North,8,3.0,3.0,96,0.00,,,1.10,Wunderground v.1.15,2013-07-23 00:30:00,
2013-07-22 20:40:00,69.1,67.9,29.80,NNE,28,1.0,2.0,96,0.00,,,1.10,Wunderground v.1.15,2013-07-23 00:40:00,
2013-07-22 20:45:00,68.9,67.7,29.80,NNW,332,1.0,2.0,96,0.00,,,1.10,Wunderground v.1.15,2013-07-23 00:45:00,
2013-07-22 20:50:00,68.8,67.6,29.80,NW,312,1.0,1.0,96,0.00,,,1.10,Wunderground v.1.15,2013-07-23 00:50:00,
2013-07-22 20:55:00,68.7,67.5,29.80,NNW,345,0.0,1.0,96,0.00,,,1.10,Wunderground v.1.15,2013-07-23 00:55:00,
2013-07-22 21:00:00,68.5,67.3,29.80,NE,53,1.0,1.0,96,0.00,,,1.10,Wunderground v.1.15,2013-07-23 01:00:00,
2013-07-22 21:10:00,68.3,67.4,29.80,NE,51,0.0,0.0,97,0.00,,,1.10,Wunderground v.1.15,2013-07-23 01:10:00,
2013-07-22 21:15:00,68.3,67.4,29.80,NE,51,0.0,0.0,97,0.00,,,1.10,Wunderground v.1.15,2013-07-23 01:15:00,
2013-07-22 21:20:00,68.2,67.3,29.80,NE,51,0.0,0.0,97,0.00,,,1.10,Wunderground v.1.15,2013-07-23 01:20:00,
2013-07-22 21:25:00,68.1,67.2,29.80,NE,51,0.0,0.0,97,0.00,,,1.10,Wunderground v.1.15,2013-07-23 01:25:00,
2013-07-22 21:30:00,68.0,67.1,29.80,NE,51,0.0,0.0,97,0.00,,,1.10,Wunderground v.1.15,2013-07-23 01:30:00,
2013-07-22 21:35:00,67.8,66.9,29.80,NE,53,0.0,0.0,97,0.00,,,1.10,Wunderground v.1.15,2013-07-23 01:35:00,
2013-07-22 21:40:00,67.8,66.9,29.79,NE,53,0.0,0.0,97,0.00,,,1.10,Wunderground v.1.15,2013-07-23 01:40:00,
2013-07-22 21:50:00,67.7,66.8,29.80,NE,51,0.0,0.0,97,0.00,,,1.10,Wunderground v.1.15,2013-07-23 01:50:00,
2013-07-22 21:55:00,67.6,66.7,29.80,NE,51,0.0,0.0,97,0.00,,,1.10,Wunderground v.1.15,2013-07-23 01:55:00,
2013-07-22 22:00:00,67.6,66.7,29.80,NE,51,0.0,0.0,97,0.00,,,1.10,Wunderground v.1.15,2013-07-23 02:00:00,
2013-07-22 22:10:00,67.6,67.0,29.80,NE,51,0.0,0.0,98,0.00,,,1.10,Wunderground v.1.15,2013-07-23 02:10:00,
2013-07-22 22:15:00,67.6,67.0,29.80,NE,51,0.0,0.0,98,0.00,,,1.10,Wunderground v.1.15,2013-07-23 02:15:00,
2013-07-22 22:20:00,67.6,67.0,29.80,NE,51,0.0,0.0,98,0.00,,,1.10,Wunderground v.1.15,2013-07-23 02:20:00,
2013-07-22 22:30:00,67.4,66.8,29.79,NE,51,0.0,0.0,98,0.00,,,1.10,Wunderground v.1.15,2013-07-23 02:30:00,
2013-07-22 22:35:00,67.3,66.7,29.80,NE,51,0.0,0.0,98,0.00,,,1.10,Wunderground v.1.15,2013-07-23 02:35:00,
2013-07-22 22:40:00,67.2,66.6,29.80,NE,53,0.0,0.0,98,0.00,,,1.10,Wunderground v.1.15,2013-07-23 02:40:00,
2013-07-22 22:45:00,67.0,66.4,29.79,NE,53,0.0,0.0,98,0.00,,,1.10,Wunderground v.1.15,2013-07-23 02:45:00,
2013-07-22 22:50:00,66.8,66.2,29.79,NE,53,0.0,0.0,98,0.00,,,1.10,Wunderground v.1.15,2013-07-23 02:50:00,
2013-07-22 22:55:00,66.5,65.9,29.80,NE,53,0.0,0.0,98,0.00,,,1.10,Wunderground v.1.15,2013-07-23 02:55:00,
2013-07-22 23:00:00,66.5,65.9,29.80,WSW,245,0.0,2.0,98,0.00,,,1.10,Wunderground v.1.15,2013-07-23 03:00:00,
2013-07-22 23:10:00,66.6,66.0,29.81,WSW,253,0.0,1.0,98,0.00,,,1.10,Wunderground v.1.15,2013-07-23 03:10:00,
2013-07-22 23:15:00,66.7,66.4,29.82,WSW,243,0.0,1.0,99,0.00,,,1.10,Wunderground v.1.15,2013-07-23 03:15:00,
2013-07-22 23:20:00,66.7,66.4,29.82,North,357,1.0,1.0,99,0.00,,,1.10,Wunderground v.1.15,2013-07-23 03:20:00,
2013-07-22 23:25:00,66.7,66.1,29.82,West,260,1.0,2.0,98,0.00,,,1.10,Wunderground v.1.15,2013-07-23 03:25:00,
2013-07-22 23:30:00,66.6,66.0,29.82,WNW,283,0.0,0.0,98,0.00,,,1.10,Wunderground v.1.15,2013-07-23 03:30:00,
2013-07-22 23:35:00,66.5,65.9,29.82,SW,232,1.0,1.0,98,0.00,,,1.10,Wunderground v.1.15,2013-07-23 03:35:00,
2013-07-22 23:45:00,66.5,65.9,29.82,West,276,1.0,3.0,98,0.00,,,1.10,Wunderground v.1.15,2013-07-23 03:45:00,
2013-07-22 23:50:00,66.4,65.8,29.82,SE,142,0.0,0.0,98,0.00,,,1.10,Wunderground v.1.15,2013-07-23 03:50:00,
2013-07-22 23:55:00,66.4,65.8,29.82,SE,142,0.0,0.0,98,0.00,,,1.10,Wunderground v.1.15,2013-07-23 03:55:00,